Regional Weather Roundup
Issued by NWS

Home | Current Version | Previous Version | Graphics & Text | Print | Product List | Glossary On
Versions: 1 2 3 4 5 6 7 8 9 10 11 12 13 14 15 16 17 18 19 20 21 22 23 24 25 26 27 28 29 30 31 32 33 34 35 36 37 38 39 40 41 42 43 44 45 46 47 48 49 50
000
ASUS43 KLSX 152057
RWRMO

WEATHER SUMMARY FOR MISSOURI
NATIONAL WEATHER SERVICE SPRINGFIELD MO
300 PM CST FRI DEC 15 2017

NOTE: "FAIR" INDICATES FEW OR NO CLOUDS BELOW 12,000 FEET WITH NO
       SIGNIFICANT WEATHER AND/OR OBSTRUCTIONS TO VISIBILITY.
       CURRENT SKY AND/OR WEATHER CONDITIONS ARE NOT AVAILABLE FOR
       CHILLICOTHE AND FARMINGTON.

MOZ001>031-035>038-043-044-053-054-152200-
...NORTHERN AND WESTERN MISSOURI...

CITY           SKY/WX    TMP DP  RH WIND       PRES   REMARKS
KANSAS CTY INT MOSUNNY   46  21  37 SW21      30.02F
LEE`S SUMMIT   SUNNY     45  21  38 W17       30.04F
ST JOSEPH      SUNNY     46  23  40 SW20      30.00F
CHILLICOTHE      N/A     45  21  38 SW13G20   30.02F

$$
MOZ066>068-077>081-088>096-101>105-152200-
...SOUTHWEST MISSOURI...

CITY           SKY/WX    TMP DP  RH WIND       PRES   REMARKS
SPRINGFIELD    MOSUNNY   45  26  47 W17       30.09F
JOPLIN         SUNNY     46  24  42 W13G21    30.13F
BRANSON        MOSUNNY   45  25  45 W10G17    30.13R

$$
MOZ032>034-039>042-045>050-055>058-069>072-152200-
...CENTRAL MISSOURI...

CITY           SKY/WX    TMP DP  RH WIND       PRES   REMARKS
COLUMBIA       NOT AVBL
JEFFERSON CITY SUNNY     43  23  45 SW10      30.07F
ROLLA          PTSUNNY   42  25  50 W13G24    30.08S
SEDALIA        SUNNY     44  25  47 SW13G20   30.07F
WARRENSBURG    SUNNY     45  23  42 SW9G18    30.06F

$$
MOZ051-052-059>065-152200-
...EAST CENTRAL MISSOURI...

CITY           SKY/WX    TMP DP  RH WIND       PRES   REMARKS
ST LOUIS INTL  MOSUNNY   45  20  36 NW8       30.06S

$$
MOZ072>076-082>087-097>100-106>115-152200-
...SOUTH CENTRAL AND SOUTHEAST MISSOURI...

CITY           SKY/WX    TMP DP  RH WIND       PRES   REMARKS
CAPE GIRARDEAU CLOUDY    45  27  49 SW8       30.10R
POPLAR BLUFF   MOSUNNY   49  27  42 SW8       30.10S
WEST PLAINS    SUNNY     47  26  44 W9        30.10R

$$



USA.gov is the U.S. government's official web portal to all federal, state and local government web resources and services.